Location: Kuppenheim
(48.8299°N, 8.2568°E)
Time: 15:42:37
(UTC+00:00)

USA 305 - Pass Details

Date: 20 June 2021
Orbit: 558 x 580 km, 54.0° (Epoch: 13 July)

Event Time Altitude Azimuth Distance (km) Brightness Sun altitude
Exits shadow 01:10:12 25° 196° (SSW) 1,158 3.8 -14.3°
Maximum altitude 01:12:10 42° 141° (SE) 810 3.4 -14.1°
Drops below altitude 10° 01:16:08 10° 70° (ENE) 1,853 6.2 -13.8°
Sets 01:18:28 0° 64° (ENE) 2,754 7.3 -13.7°
